| time (UTC) | temp F | wind direction | speed MPH | gust MPH | rain 1hr in | rain 24hr in | rain mn in | humidity % | barometer mb |
| 20260505170958 | 80 | 157 | 8.0 | 13.0 | 0.00 | 0.00 | 0.00 | 48 | 1017.7 |
| 20260505170456 | 80 | 209 | 5.0 | 10.0 | 0.00 | 0.00 | 0.00 | 51 | 1017.9 |
| 20260505165959 | 79 | 181 | 7.0 | 10.0 | 0.00 | 0.00 | 0.00 | 50 | 1018.0 |
| 20260505165457 | 79 | 134 | 5.0 | 10.0 | 0.00 | 0.00 | 0.00 | 50 | 1017.9 |
| 20260505164956 | 79 | 165 | 5.0 | 10.0 | 0.00 | 0.00 | 0.00 | 50 | 1018.0 |
| 20260505164457 | 78 | 204 | 4.0 | 10.0 | 0.00 | 0.00 | 0.00 | 50 | 1018.1 |
| 20260505163957 | 78 | 253 | 5.0 | 12.0 | 0.00 | 0.00 | 0.00 | 51 | 1018.1 |
| 20260505162958 | 78 | 236 | 7.0 | 14.0 | 0.00 | 0.00 | 0.00 | 52 | 1018.2 |
| 20260505162457 | 78 | 224 | 2.0 | 11.0 | 0.00 | 0.00 | 0.00 | 54 | 1018.1 |
| 20260505161957 | 77 | 252 | 4.0 | 11.0 | 0.00 | 0.00 | 0.00 | 53 | 1018.2 |
| 20260505161457 | 77 | 225 | 6.0 | 12.0 | 0.00 | 0.00 | 0.00 | 53 | 1018.4 |
| 20260505160957 | 77 | 206 | 6.0 | 12.0 | 0.00 | 0.00 | 0.00 | 52 | 1018.4 |
| 20260505160457 | 78 | 223 | 6.0 | 11.0 | 0.00 | 0.00 | 0.00 | 53 | 1018.5 |
| 20260505152958 | 75 | 169 | 3.0 | 11.0 | 0.00 | 0.00 | 0.00 | 57 | 1018.7 |
| 20260505152457 | 75 | 204 | 4.0 | 11.0 | 0.00 | 0.00 | 0.00 | 60 | 1018.8 |
| 20260505151956 | 74 | 235 | 5.0 | 9.0 | 0.00 | 0.00 | 0.00 | 58 | 1018.8 |
| 20260505151456 | 74 | 271 | 3.0 | 9.0 | 0.00 | 0.00 | 0.00 | 59 | 1018.9 |
| 20260505150956 | 74 | 157 | 6.0 | 9.0 | 0.00 | 0.00 | 0.00 | 58 | 1019.0 |
| 20260505150457 | 73 | 207 | 3.0 | 8.0 | 0.00 | 0.00 | 0.00 | 60 | 1019.0 |
| 20260505140455 | 70 | 182 | 3.0 | 11.0 | 0.00 | 0.00 | 0.00 | 65 | 1018.9 |
| 20260505124457 | 64 | 231 | 4.0 | 10.0 | 0.00 | 0.00 | 0.00 | 71 | 1019.0 |
| 20260505123957 | 64 | 189 | 6.0 | 10.0 | 0.00 | 0.00 | 0.00 | 71 | 1018.9 |
| 20260505123457 | 63 | 222 | 3.0 | 9.0 | 0.00 | 0.00 | 0.00 | 73 | 1018.9 |
| 20260505122957 | 62 | 211 | 3.0 | 9.0 | 0.00 | 0.00 | 0.00 | 73 | 1018.9 |
| 20260505122457 | 62 | 241 | 3.0 | 7.0 | 0.00 | 0.00 | 0.00 | 76 | 1018.9 |
| 20260505121957 | 61 | 242 | 3.0 | 7.0 | 0.00 | 0.00 | 0.00 | 74 | 1018.8 |
| 20260505121457 | 61 | 213 | 2.0 | 5.0 | 0.00 | 0.00 | 0.00 | 76 | 1018.8 |
| 20260505120956 | 60 | 166 | 2.0 | 7.0 | 0.00 | 0.00 | 0.00 | 77 | 1018.8 |
| 20260505120456 | 59 | 191 | 3.0 | 7.0 | 0.00 | 0.00 | 0.00 | 77 | 1018.8 |
| 20260505120000 | 59 | 188 | 3.0 | 6.0 | 0.00 | 0.00 | 0.00 | 79 | 1018.8 |
| 20260505115456 | 58 | 174 | 2.0 | 5.0 | 0.00 | 0.00 | 0.00 | 79 | 1018.7 |
| 20260505114456 | 57 | 186 | 1.0 | 6.0 | 0.00 | 0.00 | 0.00 | 81 | 1018.8 |
| 20260505113957 | 56 | 199 | 3.0 | 6.0 | 0.00 | 0.00 | 0.00 | 81 | 1018.7 |
| 20260505113458 | 56 | 204 | 2.0 | 4.0 | 0.00 | 0.00 | 0.00 | 82 | 1018.7 |
| 20260505112957 | 55 | 194 | 2.0 | 3.0 | 0.00 | 0.00 | 0.00 | 83 | 1018.6 |
| 20260505112457 | 55 | 192 | 2.0 | 3.0 | 0.00 | 0.00 | 0.00 | 84 | 1018.6 |
| 20260505111957 | 54 | 192 | 1.0 | 2.0 | 0.00 | 0.00 | 0.00 | 84 | 1018.5 |
| 20260505111457 | 54 | 192 | 0.0 | 2.0 | 0.00 | 0.00 | 0.00 | 84 | 1018.5 |
| 20260505110957 | 54 | 192 | 1.0 | 2.0 | 0.00 | 0.00 | 0.00 | 84 | 1018.4 |
| 20260505110456 | 53 | 192 | 1.0 | 2.0 | 0.00 | 0.00 | 0.00 | 84 | 1018.3 |
| 20260505101956 | 54 | 67 | 0.0 | 2.0 | 0.00 | 0.00 | 0.00 | 81 | 1017.7 |
| 20260505101456 | 54 | 67 | 1.0 | 2.0 | 0.00 | 0.00 | 0.00 | 81 | 1017.6 |
| 20260505100957 | 54 | 67 | 1.0 | 2.0 | 0.00 | 0.00 | 0.00 | 81 | 1017.6 |
| 20260505100455 | 54 | 67 | 1.0 | 2.0 | 0.00 | 0.00 | 0.00 | 81 | 1017.7 |
| 20260505095958 | 54 | 67 | 1.0 | 3.0 | 0.00 | 0.00 | 0.00 | 81 | 1017.6 |
| 20260505095455 | 54 | 205 | 1.0 | 3.0 | 0.00 | 0.00 | 0.00 | 80 | 1017.6 |
| 20260505094955 | 54 | 212 | 1.0 | 2.0 | 0.00 | 0.00 | 0.00 | 80 | 1017.6 |
| 20260505094456 | 55 | 212 | 1.0 | 2.0 | 0.00 | 0.00 | 0.00 | 80 | 1017.6 |
| 20260505093957 | 55 | 212 | 1.0 | 3.0 | 0.00 | 0.00 | 0.00 | 80 | 1017.5 |
| 20260505093456 | 55 | 212 | 1.0 | 3.0 | 0.00 | 0.00 | 0.00 | 80 | 1017.5 |
| 20260505092955 | 55 | 212 | 2.0 | 2.0 | 0.00 | 0.00 | 0.00 | 80 | 1017.5 |
| 20260505092455 | 55 | 212 | 2.0 | 2.0 | 0.00 | 0.00 | 0.00 | 80 | 1017.5 |
| 20260505091455 | 55 | 212 | 1.0 | 2.0 | 0.00 | 0.00 | 0.00 | 79 | 1017.4 |
| 20260505085958 | 56 | 212 | 1.0 | 5.0 | 0.00 | 0.00 | 0.00 | 77 | 1017.3 |
| 20260505085456 | 56 | 212 | 1.0 | 5.0 | 0.00 | 0.00 | 0.00 | 77 | 1017.2 |
| 20260505084458 | 56 | 141 | 1.0 | 3.0 | 0.00 | 0.00 | 0.00 | 76 | 1017.1 |
| 20260505083956 | 56 | 141 | 2.0 | 3.0 | 0.00 | 0.00 | 0.00 | 76 | 1017.1 |
| 20260505083457 | 56 | 141 | 1.0 | 3.0 | 0.00 | 0.00 | 0.00 | 76 | 1017.1 |
| 20260505082956 | 57 | 141 | 2.0 | 3.0 | 0.00 | 0.00 | 0.00 | 76 | 1017.1 |
| 20260505082455 | 57 | 141 | 2.0 | 3.0 | 0.00 | 0.00 | 0.00 | 76 | 1017.1 |
| 20260505081956 | 57 | 141 | 2.0 | 3.0 | 0.00 | 0.00 | 0.00 | 75 | 1017.0 |
| 20260505081456 | 57 | 141 | 2.0 | 4.0 | 0.00 | 0.00 | 0.00 | 75 | 1017.0 |
| 20260505080955 | 57 | 150 | 3.0 | 4.0 | 0.00 | 0.00 | 0.00 | 75 | 1017.0 |
| 20260505080456 | 57 | 157 | 3.0 | 4.0 | 0.00 | 0.00 | 0.00 | 75 | 1017.0 |
| 20260505075959 | 57 | 178 | 2.0 | 4.0 | 0.00 | 0.00 | 0.00 | 75 | 1017.0 |
| 20260505074455 | 57 | 196 | 2.0 | 4.0 | 0.00 | 0.00 | 0.00 | 75 | 1016.8 |
| 20260505073955 | 57 | 182 | 3.0 | 4.0 | 0.00 | 0.00 | 0.00 | 75 | 1016.9 |
| 20260505073456 | 57 | 182 | 2.0 | 3.0 | 0.00 | 0.00 | 0.00 | 74 | 1017.0 |
| 20260505072957 | 57 | 163 | 3.0 | 4.0 | 0.00 | 0.00 | 0.00 | 74 | 1016.9 |
| 20260505072456 | 58 | 181 | 2.0 | 4.0 | 0.00 | 0.00 | 0.00 | 74 | 1016.9 |
| 20260505071956 | 58 | 171 | 2.0 | 3.0 | 0.00 | 0.00 | 0.00 | 73 | 1016.8 |
| 20260505070456 | 58 | 148 | 3.0 | 5.0 | 0.00 | 0.00 | 0.00 | 73 | 1016.8 |
| 20260505065959 | 58 | 162 | 3.0 | 5.0 | 0.00 | 0.00 | 0.00 | 73 | 1016.9 |
| 20260505065456 | 58 | 165 | 3.0 | 6.0 | 0.00 | 0.00 | 0.00 | 72 | 1016.9 |
| 20260505064958 | 58 | 162 | 4.0 | 6.0 | 0.00 | 0.00 | 0.00 | 72 | 1016.9 |
| 20260505063456 | 59 | 200 | 2.0 | 6.0 | 0.00 | 0.00 | 0.00 | 71 | 1016.7 |
| 20260505062957 | 59 | 146 | 2.0 | 6.0 | 0.00 | 0.00 | 0.00 | 71 | 1016.8 |
| 20260505061955 | 59 | 143 | 3.0 | 6.0 | 0.00 | 0.00 | 0.00 | 70 | 1016.8 |
| 20260505061456 | 59 | 149 | 3.0 | 6.0 | 0.00 | 0.00 | 0.00 | 70 | 1016.9 |
| 20260505055958 | 60 | 153 | 3.0 | 5.0 | 0.00 | 0.00 | 0.00 | 69 | 1016.9 |
| 20260505055456 | 60 | 155 | 2.0 | 5.0 | 0.00 | 0.00 | 0.00 | 69 | 1017.0 |
| 20260505054956 | 60 | 161 | 3.0 | 4.0 | 0.00 | 0.00 | 0.00 | 69 | 1017.1 |
| 20260505053957 | 60 | 166 | 3.0 | 6.0 | 0.00 | 0.00 | 0.00 | 68 | 1017.1 |
| 20260505053456 | 60 | 136 | 3.0 | 5.0 | 0.00 | 0.00 | 0.00 | 68 | 1017.1 |
| 20260505052956 | 61 | 207 | 2.0 | 5.0 | 0.00 | 0.00 | 0.00 | 68 | 1017.1 |
| 20260505052457 | 61 | 187 | 3.0 | 7.0 | 0.00 | 0.00 | 0.00 | 68 | 1017.1 |
| 20260505051956 | 61 | 196 | 3.0 | 7.0 | 0.00 | 0.00 | 0.00 | 68 | 1017.2 |
| 20260505051456 | 61 | 159 | 3.0 | 6.0 | 0.00 | 0.00 | 0.00 | 67 | 1017.2 |
| 20260505050956 | 61 | 214 | 3.0 | 8.0 | 0.00 | 0.00 | 0.00 | 67 | 1017.2 |
| 20260505041454 | 63 | 198 | 2.0 | 11.0 | 0.00 | 0.00 | 0.00 | 66 | 1017.2 |
| 20260505040955 | 63 | 190 | 3.0 | 11.0 | 0.00 | 0.00 | 0.00 | 66 | 1017.3 |
| 20260505040454 | 63 | 162 | 4.0 | 7.0 | 0.00 | 0.00 | 0.00 | 66 | 1017.1 |
| 20260505040005 | 63 | 241 | 4.0 | 7.0 | 0.00 | 0.00 | 0.00 | 66 | 1017.1 |
| 20260505035000 | 63 | 181 | 5.0 | 10.0 | 0.00 | 0.00 | 0.00 | 66 | 1017.3 |
| 20260505034459 | 63 | 170 | 5.0 | 8.0 | 0.00 | 0.00 | 0.00 | 65 | 1017.2 |
| 20260505033501 | 64 | 175 | 5.0 | 10.0 | 0.00 | 0.00 | 0.00 | 65 | 1017.1 |
| 20260505032959 | 64 | 175 | 5.0 | 10.0 | 0.00 | 0.00 | 0.00 | 65 | 1017.1 |
| 20260505032459 | 64 | 182 | 6.0 | 11.0 | 0.00 | 0.00 | 0.00 | 65 | 1017.1 |
| 20260505031959 | 64 | 194 | 4.0 | 8.0 | 0.00 | 0.00 | 0.00 | 64 | 1017.1 |
| 20260505031459 | 64 | 165 | 5.0 | 8.0 | 0.00 | 0.00 | 0.00 | 65 | 1017.1 |
| 20260505030500 | 64 | 194 | 3.0 | 10.0 | 0.00 | 0.00 | 0.00 | 64 | 1017.2 |
| 20260505030001 | 64 | 182 | 6.0 | 10.0 | 0.00 | 0.00 | 0.00 | 64 | 1017.1 |
| 20260505025458 | 64 | 207 | 6.0 | 11.0 | 0.00 | 0.00 | 0.00 | 64 | 1017.2 |
| 20260505024957 | 65 | 177 | 4.0 | 11.0 | 0.00 | 0.00 | 0.00 | 63 | 1017.1 |
| 20260505024457 | 65 | 194 | 7.0 | 11.0 | 0.00 | 0.00 | 0.00 | 63 | 1017.1 |
| 20260505023958 | 65 | 221 | 4.0 | 11.0 | 0.00 | 0.00 | 0.00 | 63 | 1017.0 |
| 20260505023458 | 65 | 204 | 5.0 | 10.0 | 0.00 | 0.00 | 0.00 | 63 | 1017.0 |
| 20260505022957 | 65 | 192 | 5.0 | 11.0 | 0.00 | 0.00 | 0.00 | 63 | 1017.0 |
| 20260505022458 | 65 | 223 | 5.0 | 11.0 | 0.00 | 0.00 | 0.00 | 63 | 1016.9 |
| 20260505021458 | 66 | 181 | 5.0 | 12.0 | 0.00 | 0.00 | 0.00 | 63 | 1016.9 |
| 20260505020458 | 66 | 206 | 4.0 | 12.0 | 0.00 | 0.00 | 0.00 | 63 | 1016.9 |
| 20260505020001 | 66 | 180 | 4.0 | 11.0 | 0.00 | 0.00 | 0.00 | 62 | 1016.8 |
| 20260505015458 | 67 | 162 | 4.0 | 10.0 | 0.00 | 0.00 | 0.00 | 62 | 1016.7 |
| 20260505014958 | 67 | 149 | 7.0 | 14.0 | 0.00 | 0.00 | 0.00 | 62 | 1016.7 |
| 20260505014457 | 67 | 141 | 5.0 | 11.0 | 0.00 | 0.00 | 0.00 | 62 | 1016.6 |
| 20260505013958 | 67 | 173 | 6.0 | 11.0 | 0.00 | 0.00 | 0.00 | 61 | 1016.6 |
| 20260505012958 | 68 | 132 | 7.0 | 12.0 | 0.00 | 0.00 | 0.00 | 61 | 1016.9 |
| 20260505012459 | 68 | 191 | 6.0 | 13.0 | 0.00 | 0.00 | 0.00 | 60 | 1016.3 |
| 20260505011503 | 69 | 167 | 5.0 | 11.0 | 0.00 | 0.00 | 0.00 | 60 | 1016.1 |
| 20260505010958 | 69 | 175 | 6.0 | 12.0 | 0.00 | 0.00 | 0.00 | 59 | 1016.1 |
| 20260505010458 | 69 | 152 | 5.0 | 12.0 | 0.00 | 0.00 | 0.00 | 58 | 1016.1 |
| 20260505010000 | 69 | 162 | 8.0 | 16.0 | 0.00 | 0.00 | 0.00 | 58 | 1015.8 |
| 20260505004458 | 70 | 153 | 6.0 | 13.0 | 0.00 | 0.00 | 0.00 | 52 | 1015.6 |
| 20260505003958 | 70 | 158 | 7.0 | 13.0 | 0.00 | 0.00 | 0.00 | 50 | 1015.4 |
| 20260505003458 | 70 | 192 | 6.0 | 9.0 | 0.00 | 0.00 | 0.00 | 48 | 1015.3 |
| 20260505002958 | 70 | 146 | 3.0 | 8.0 | 0.00 | 0.00 | 0.00 | 47 | 1015.2 |
| 20260505002458 | 71 | 170 | 3.0 | 5.0 | 0.00 | 0.00 | 0.00 | 47 | 1015.2 |
| 20260505001958 | 71 | 227 | 4.0 | 6.0 | 0.00 | 0.00 | 0.00 | 47 | 1015.3 |
| 20260505001459 | 71 | 160 | 3.0 | 6.0 | 0.00 | 0.00 | 0.00 | 46 | 1015.3 |
| 20260505000957 | 72 | 145 | 3.0 | 5.0 | 0.00 | 0.00 | 0.00 | 46 | 1015.2 |
| 20260505000458 | 72 | 169 | 4.0 | 8.0 | 0.00 | 0.00 | 0.00 | 44 | 1015.2 |
| 20260505000002 | 72 | 161 | 4.0 | 8.0 | 0.00 | 0.00 | 0.00 | 44 | 1015.2 |
| 20260504235458 | 73 | 186 | 2.0 | 8.0 | 0.00 | 0.00 | 0.00 | 44 | 1015.2 |
| 20260504234958 | 73 | 177 | 4.0 | 8.0 | 0.00 | 0.00 | 0.00 | 42 | 1015.1 |
| 20260504234458 | 74 | 169 | 2.0 | 6.0 | 0.00 | 0.00 | 0.00 | 42 | 1015.0 |
| 20260504233957 | 74 | 182 | 3.0 | 6.0 | 0.00 | 0.00 | 0.00 | 41 | 1014.9 |
| 20260504233457 | 74 | 197 | 3.0 | 8.0 | 0.00 | 0.00 | 0.00 | 40 | 1014.8 |
| 20260504232958 | 74 | 175 | 4.0 | 7.0 | 0.00 | 0.00 | 0.00 | 40 | 1014.9 |
| 20260504232457 | 75 | 155 | 4.0 | 8.0 | 0.00 | 0.00 | 0.00 | 39 | 1014.7 |
| 20260504231457 | 75 | 206 | 3.0 | 6.0 | 0.00 | 0.00 | 0.00 | 40 | 1014.7 |
| 20260504230459 | 76 | 192 | 4.0 | 10.0 | 0.00 | 0.00 | 0.00 | 41 | 1014.8 |
| 20260504230000 | 76 | 182 | 5.0 | 10.0 | 0.00 | 0.00 | 0.00 | 38 | 1014.8 |
| 20260504225458 | 76 | 193 | 4.0 | 7.0 | 0.00 | 0.00 | 0.00 | 38 | 1014.7 |
| 20260504224958 | 77 | 173 | 4.0 | 8.0 | 0.00 | 0.00 | 0.00 | 40 | 1014.7 |
| 20260504223959 | 77 | 161 | 3.0 | 10.0 | 0.00 | 0.00 | 0.00 | 39 | 1014.8 |
| 20260504223457 | 77 | 168 | 5.0 | 12.0 | 0.00 | 0.00 | 0.00 | 38 | 1014.7 |
| 20260504222957 | 77 | 224 | 5.0 | 12.0 | 0.00 | 0.00 | 0.00 | 37 | 1014.8 |
| 20260504222459 | 78 | 180 | 7.0 | 12.0 | 0.00 | 0.00 | 0.00 | 37 | 1014.7 |
| 20260504221957 | 78 | 144 | 5.0 | 9.0 | 0.00 | 0.00 | 0.00 | 36 | 1014.6 |
| 20260504221458 | 78 | 178 | 5.0 | 11.0 | 0.00 | 0.00 | 0.00 | 37 | 1014.7 |
| 20260504220958 | 78 | 175 | 7.0 | 11.0 | 0.00 | 0.00 | 0.00 | 36 | 1014.8 |
| 20260504220459 | 79 | 172 | 4.0 | 11.0 | 0.00 | 0.00 | 0.00 | 36 | 1014.7 |
| 20260504220001 | 79 | 176 | 6.0 | 11.0 | 0.00 | 0.00 | 0.00 | 36 | 1014.8 |
| 20260504215458 | 79 | 145 | 6.0 | 10.0 | 0.00 | 0.00 | 0.00 | 37 | 1014.7 |
| 20260504214958 | 79 | 199 | 4.0 | 10.0 | 0.00 | 0.00 | 0.00 | 37 | 1014.7 |
| 20260504214459 | 79 | 202 | 4.0 | 10.0 | 0.00 | 0.00 | 0.00 | 35 | 1014.7 |
| 20260504213458 | 79 | 224 | 5.0 | 10.0 | 0.00 | 0.00 | 0.00 | 35 | 1014.8 |
| 20260504212958 | 79 | 175 | 7.0 | 15.0 | 0.00 | 0.00 | 0.00 | 35 | 1014.7 |
| 20260504212457 | 79 | 143 | 7.0 | 12.0 | 0.00 | 0.00 | 0.00 | 35 | 1014.8 |
| 20260504211958 | 79 | 163 | 8.0 | 12.0 | 0.00 | 0.00 | 0.00 | 34 | 1014.8 |
| 20260504210958 | 79 | 213 | 7.0 | 12.0 | 0.00 | 0.00 | 0.00 | 34 | 1014.8 |
| 20260504210459 | 79 | 225 | 6.0 | 12.0 | 0.00 | 0.00 | 0.00 | 33 | 1014.8 |
| 20260504210001 | 80 | 178 | 7.0 | 12.0 | 0.00 | 0.00 | 0.00 | 33 | 1014.8 |
| 20260504204957 | 80 | 180 | 5.0 | 11.0 | 0.00 | 0.00 | 0.00 | 34 | 1014.8 |
| 20260504204458 | 80 | 189 | 6.0 | 10.0 | 0.00 | 0.00 | 0.00 | 35 | 1014.8 |
| 20260504203957 | 80 | 159 | 5.0 | 11.0 | 0.00 | 0.00 | 0.00 | 34 | 1014.9 |
| 20260504203458 | 80 | 179 | 4.0 | 11.0 | 0.00 | 0.00 | 0.00 | 34 | 1014.9 |
| 20260504202958 | 80 | 143 | 5.0 | 15.0 | 0.00 | 0.00 | 0.00 | 33 | 1015.0 |
| 20260504201957 | 80 | 163 | 4.0 | 14.0 | 0.00 | 0.00 | 0.00 | 35 | 1015.1 |
| 20260504201457 | 80 | 186 | 7.0 | 14.0 | 0.00 | 0.00 | 0.00 | 37 | 1015.2 |
| 20260504200959 | 80 | 193 | 8.0 | 12.0 | 0.00 | 0.00 | 0.00 | 35 | 1015.3 |
| 20260504200458 | 80 | 230 | 6.0 | 10.0 | 0.00 | 0.00 | 0.00 | 36 | 1015.3 |
| 20260504200001 | 80 | 118 | 4.0 | 10.0 | 0.00 | 0.00 | 0.00 | 38 | 1015.2 |
| 20260504195458 | 80 | 192 | 6.0 | 12.0 | 0.00 | 0.00 | 0.00 | 34 | 1015.2 |
| 20260504194457 | 80 | 113 | 6.0 | 10.0 | 0.00 | 0.00 | 0.00 | 35 | 1015.3 |
| 20260504193957 | 79 | 228 | 4.0 | 12.0 | 0.00 | 0.00 | 0.00 | 34 | 1015.3 |
| 20260504193457 | 80 | 131 | 7.0 | 12.0 | 0.00 | 0.00 | 0.00 | 34 | 1015.3 |
| 20260504192958 | 80 | 200 | 5.0 | 11.0 | 0.00 | 0.00 | 0.00 | 34 | 1015.5 |
| 20260504192457 | 80 | 159 | 3.0 | 11.0 | 0.00 | 0.00 | 0.00 | 38 | 1015.5 |
| 20260504191958 | 80 | 187 | 7.0 | 14.0 | 0.00 | 0.00 | 0.00 | 34 | 1015.7 |
| 20260504191458 | 80 | 240 | 7.0 | 14.0 | 0.00 | 0.00 | 0.00 | 35 | 1015.8 |
| 20260504190458 | 79 | 283 | 7.0 | 13.0 | 0.00 | 0.00 | 0.00 | 32 | 1015.8 |
| 20260504185959 | 79 | 265 | 7.0 | 12.0 | 0.00 | 0.00 | 0.00 | 31 | 1015.7 |
| 20260504185456 | 80 | 237 | 4.0 | 15.0 | 0.00 | 0.00 | 0.00 | 34 | 1015.8 |
| 20260504184956 | 80 | 213 | 6.0 | 15.0 | 0.00 | 0.00 | 0.00 | 32 | 1015.8 |
| 20260504184457 | 80 | 259 | 3.0 | 13.0 | 0.00 | 0.00 | 0.00 | 32 | 1015.9 |
| 20260504183957 | 80 | 183 | 6.0 | 13.0 | 0.00 | 0.00 | 0.00 | 34 | 1015.8 |
| 20260504183457 | 80 | 170 | 5.0 | 11.0 | 0.00 | 0.00 | 0.00 | 31 | 1015.9 |
| 20260504182956 | 80 | 154 | 4.0 | 11.0 | 0.00 | 0.00 | 0.00 | 32 | 1015.9 |
| 20260504182456 | 80 | 221 | 3.0 | 9.0 | 0.00 | 0.00 | 0.00 | 37 | 1016.0 |
| 20260504181456 | 78 | 155 | 5.0 | 11.0 | 0.00 | 0.00 | 0.00 | 37 | 1016.0 |
| 20260504180957 | 78 | 205 | 7.0 | 12.0 | 0.00 | 0.00 | 0.00 | 36 | 1016.1 |
| 20260504180457 | 78 | 200 | 6.0 | 12.0 | 0.00 | 0.00 | 0.00 | 34 | 1016.0 |
| 20260504175456 | 78 | 200 | 5.0 | 10.0 | 0.00 | 0.00 | 0.00 | 41 | 1016.3 |
| 20260504174957 | 78 | 205 | 4.0 | 10.0 | 0.00 | 0.00 | 0.00 | 38 | 1016.4 |
| 20260504174456 | 77 | 252 | 3.0 | 13.0 | 0.00 | 0.00 | 0.00 | 39 | 1016.5 |
| 20260504173957 | 77 | 279 | 8.0 | 14.0 | 0.00 | 0.00 | 0.00 | 37 | 1016.5 |
| 20260504173456 | 78 | 237 | 7.0 | 14.0 | 0.00 | 0.00 | 0.00 | 40 | 1016.6 |
| 20260504172957 | 78 | 201 | 6.0 | 11.0 | 0.00 | 0.00 | 0.00 | 37 | 1016.7 |
| 20260504172456 | 77 | 196 | 3.0 | 10.0 | 0.00 | 0.00 | 0.00 | 38 | 1016.7 |
| 20260504171958 | 77 | 207 | 4.0 | 11.0 | 0.00 | 0.00 | 0.00 | 40 | 1016.7 |
| 20260504171456 | 77 | 261 | 6.0 | 11.0 | 0.00 | 0.00 | 0.00 | 39 | 1016.9 |